When you browse on this site, cookies collect data to enhance your experience and personalize the content and advertising you see.
Visit our Privacy Policy to learn more. By continuing to use the site, you agree to this use of cookies and data.
  • In Spain
  • List of Countries
  • For 7 days
  • Water Temperature
  • Satellite Maps
  • Weather Map
  • Weather Widgets
  • user-avatar
    Login

    Hourly Weather Potosi

    Today, 20 January, Sunday

    Time Temperature Precipitation Wind Pressure Humidity
    00:00 +8°C° 0 mm 2 mps 468 mmHg 85%
    01:00 +7°C° 0 mm 2 mps 468 mmHg 86%
    02:00 +7°C° 0 mm 2 mps 468 mmHg 85%
    03:00 +7°C° 0 mm 2 mps 468 mmHg 84%
    04:00 +8°C° 0 mm 1 mps 468 mmHg 82%
    05:00 +8°C° 0 mm 1 mps 468 mmHg 81%
    06:00 +8°C° 0 mm 1 mps 468 mmHg 78%
    07:00 +8°C° 0 mm 1 mps 468 mmHg 76%
    08:00 +8°C° 0 mm 0 mps 469 mmHg 71%
    09:00 +11°C° 0 mm 1 mps 470 mmHg 61%
    10:00 +12°C° 0 mm 1 mps 470 mmHg 52%
    11:00 +14°C° 0 mm 2 mps 471 mmHg 42%
    12:00 +14°C° 0 mm 3 mps 471 mmHg 39%
    13:00 +16°C° 0 mm 3 mps 472 mmHg 36%
    14:00 +17°C° 0 mm 4 mps 472 mmHg 33%
    15:00 +16°C° 0 mm 5 mps 472 mmHg 36%
    16:00 +16°C° 0 mm 5 mps 471 mmHg 38%
    17:00 +15°C° 0 mm 6 mps 471 mmHg 41%
    18:00 +14°C° 0.1 mm 5 mps 470 mmHg 49%
    19:00 +12°C° 0.1 mm 4 mps 469 mmHg 57%
    20:00 +11°C° 0.1 mm 4 mps 469 mmHg 65%
    21:00 +10°C° 0 mm 3 mps 469 mmHg 69%
    22:00 +10°C° 0 mm 3 mps 469 mmHg 74%
    23:00 +9°C° 0 mm 2 mps 469 mmHg 78%

    Tomorrow, 21 January, Monday

    Time Temperature Precipitation Wind Pressure Humidity
    00:00 +9°C° 0 mm 2 mps 468 mmHg 79%
    01:00 +8°C° 0 mm 2 mps 468 mmHg 80%
    02:00 +8°C° 0 mm 2 mps 468 mmHg 81%
    03:00 +9°C° 0 mm 1 mps 468 mmHg 82%
    04:00 +9°C° 0 mm 1 mps 468 mmHg 82%
    05:00 +9°C° 0 mm 1 mps 468 mmHg 83%
    06:00 +9°C° 0 mm 1 mps 468 mmHg 79%
    07:00 +9°C° 0 mm 1 mps 469 mmHg 74%
    08:00 +10°C° 0 mm 1 mps 469 mmHg 70%
    09:00 +11°C° 0 mm 1 mps 470 mmHg 59%
    10:00 +13°C° 0 mm 2 mps 471 mmHg 48%
    11:00 +14°C° 0 mm 3 mps 472 mmHg 37%
    12:00 +15°C° 0 mm 4 mps 472 mmHg 33%
    13:00 +16°C° 0 mm 5 mps 472 mmHg 28%
    14:00 +17°C° 0 mm 6 mps 472 mmHg 24%
    15:00 +16°C° 0 mm 6 mps 472 mmHg 27%
    16:00 +16°C° 0 mm 7 mps 471 mmHg 30%
    17:00 +15°C° 0 mm 7 mps 471 mmHg 32%
    18:00 +14°C° 0 mm 7 mps 470 mmHg 41%
    19:00 +11°C° 0 mm 6 mps 470 mmHg 50%
    20:00 +10°C° 0 mm 5 mps 469 mmHg 59%
    21:00 +10°C° 0.1 mm 4 mps 469 mmHg 64%
    22:00 +9°C° 0.1 mm 3 mps 469 mmHg 69%
    23:00 +9°C° 0.1 mm 3 mps 469 mmHg 74%

    Day after tomorrow, 22 January, Tuesday

    Time Temperature Precipitation Wind Pressure Humidity
    00:00 +9°C° 0.1 mm 2 mps 469 mmHg 76%
    01:00 +8°C° 0.1 mm 2 mps 469 mmHg 78%
    02:00 +9°C° 0.1 mm 1 mps 469 mmHg 80%
    03:00 +9°C° 0 mm 1 mps 468 mmHg 81%
    04:00 +8°C° 0 mm 1 mps 468 mmHg 81%
    05:00 +8°C° 0 mm 1 mps 468 mmHg 82%
    06:00 +9°C° 0 mm 1 mps 469 mmHg 79%
    07:00 +9°C° 0 mm 1 mps 469 mmHg 76%
    08:00 +9°C° 0 mm 1 mps 470 mmHg 73%
    09:00 +10°C° 0 mm 2 mps 470 mmHg 63%
    10:00 +12°C° 0 mm 3 mps 471 mmHg 53%
    11:00 +13°C° 0 mm 3 mps 472 mmHg 42%
    12:00 +14°C° 0 mm 4 mps 472 mmHg 39%
    13:00 +15°C° 0 mm 5 mps 472 mmHg 35%
    14:00 +16°C° 0 mm 6 mps 472 mmHg 31%
    15:00 +16°C° 0 mm 6 mps 472 mmHg 34%
    16:00 +15°C° 0 mm 7 mps 471 mmHg 37%
    17:00 +15°C° 0 mm 7 mps 471 mmHg 40%
    18:00 +13°C° 0.1 mm 6 mps 470 mmHg 46%
    19:00 +11°C° 0.1 mm 6 mps 469 mmHg 53%
    20:00 +9°C° 0.1 mm 5 mps 469 mmHg 59%
    21:00 +10°C° 0 mm 4 mps 469 mmHg 62%
    22:00 +9°C° 0 mm 3 mps 469 mmHg 66%
    23:00 +9°C° 0 mm 2 mps 469 mmHg 70%

    23 January, Wednesday

    Time Temperature Precipitation Wind Pressure Humidity
    00:00 +9°C° 0 mm 2 mps 469 mmHg 72%
    01:00 +9°C° 0 mm 1 mps 469 mmHg 75%
    02:00 +9°C° 0 mm 1 mps 468 mmHg 78%
    03:00 +8°C° 0 mm 1 mps 468 mmHg 79%
    04:00 +7°C° 0 mm 0 mps 468 mmHg 81%
    05:00 +7°C° 0 mm 0 mps 468 mmHg 82%
    06:00 +8°C° 0 mm 0 mps 468 mmHg 76%
    07:00 +8°C° 0 mm 0 mps 469 mmHg 71%
    08:00 +9°C° 0 mm 0 mps 470 mmHg 65%
    09:00 +12°C° 0 mm 2 mps 471 mmHg 56%
    10:00 +12°C° 0 mm 3 mps 472 mmHg 47%
    11:00 +14°C° 0 mm 5 mps 473 mmHg 38%
    12:00 +15°C° 0 mm 6 mps 473 mmHg 37%
    13:00 +16°C° 0 mm 7 mps 473 mmHg 36%
    14:00 +17°C° 0 mm 8 mps 473 mmHg 34%
    15:00 +16°C° 0.3 mm 8 mps 472 mmHg 38%
    16:00 +15°C° 0.3 mm 8 mps 471 mmHg 43%
    17:00 +13°C° 0.3 mm 8 mps 470 mmHg 47%
    18:00 +12°C° 0.2 mm 7 mps 470 mmHg 51%
    19:00 +11°C° 0.2 mm 6 mps 470 mmHg 56%
    20:00 +10°C° 0.2 mm 5 mps 469 mmHg 61%
    21:00 +10°C° 0.1 mm 4 mps 470 mmHg 64%
    22:00 +10°C° 0.1 mm 3 mps 470 mmHg 67%
    23:00 +9°C° 0.1 mm 3 mps 470 mmHg 70%

    24 January, Thursday

    Time Temperature Precipitation Wind Pressure Humidity
    00:00 +9°C° 0 mm 2 mps 469 mmHg 73%
    01:00 +8°C° 0 mm 2 mps 469 mmHg 75%
    02:00 +8°C° 0 mm 2 mps 468 mmHg 78%
    03:00 +8°C° 0 mm 2 mps 468 mmHg 79%
    04:00 +8°C° 0 mm 1 mps 468 mmHg 81%
    05:00 +8°C° 0 mm 1 mps 468 mmHg 82%
    06:00 +8°C° 0 mm 1 mps 468 mmHg 76%
    07:00 +9°C° 0 mm 1 mps 469 mmHg 70%
    08:00 +10°C° 0 mm 1 mps 470 mmHg 64%
    09:00 +10°C° 0 mm 2 mps 471 mmHg 56%
    10:00 +12°C° 0 mm 3 mps 472 mmHg 48%
    11:00 +13°C° 0 mm 4 mps 473 mmHg 40%
    12:00 +14°C° 0 mm 5 mps 473 mmHg 37%
    13:00 +15°C° 0 mm 6 mps 473 mmHg 35%
    14:00 +16°C° 0 mm 6 mps 473 mmHg 32%
    15:00 +16°C° 0 mm 7 mps 472 mmHg 35%
    16:00 +15°C° 0 mm 7 mps 471 mmHg 37%
    17:00 +15°C° 0 mm 7 mps 471 mmHg 39%
    18:00 +14°C° 0 mm 6 mps 470 mmHg 44%
    19:00 +12°C° 0 mm 5 mps 470 mmHg 48%
    20:00 +10°C° 0 mm 5 mps 469 mmHg 53%
    21:00 +11°C° 0 mm 4 mps 469 mmHg 56%
    22:00 +10°C° 0 mm 3 mps 469 mmHg 59%
    23:00 +9°C° 0 mm 2 mps 469 mmHg 62%

    25 January, Friday

    Time Temperature Precipitation Wind Pressure Humidity
    00:00 +9°C° 0 mm 2 mps 469 mmHg 64%
    01:00 +9°C° 0 mm 2 mps 468 mmHg 66%
    02:00 +9°C° 0 mm 1 mps 468 mmHg 68%
    03:00 +9°C° 0 mm 1 mps 468 mmHg 68%
    04:00 +9°C° 0 mm 1 mps 467 mmHg 69%
    05:00 +8°C° 0 mm 1 mps 467 mmHg 70%
    06:00 +9°C° 0 mm 1 mps 468 mmHg 65%
    07:00 +10°C° 0 mm 1 mps 469 mmHg 60%
    08:00 +10°C° 0 mm 1 mps 469 mmHg 55%
    09:00 +12°C° 0 mm 1 mps 470 mmHg 47%
    10:00 +13°C° 0 mm 2 mps 471 mmHg 40%
    11:00 +15°C° 0 mm 2 mps 472 mmHg 32%
    12:00 +16°C° 0 mm 2 mps 472 mmHg 29%
    13:00 +17°C° 0 mm 3 mps 472 mmHg 27%
    14:00 +19°C° 0 mm 3 mps 472 mmHg 24%
    15:00 +17°C° 0 mm 5 mps 471 mmHg 26%
    16:00 +17°C° 0 mm 6 mps 471 mmHg 28%
    17:00 +17°C° 0 mm 7 mps 470 mmHg 30%
    18:00 +15°C° 0 mm 7 mps 470 mmHg 33%
    19:00 +14°C° 0 mm 7 mps 469 mmHg 36%
    20:00 +12°C° 0 mm 7 mps 469 mmHg 39%
    21:00 +12°C° 0 mm 5 mps 469 mmHg 44%
    22:00 +11°C° 0 mm 4 mps 469 mmHg 49%
    23:00 +11°C° 0 mm 3 mps 470 mmHg 55%
    Show more